EW8956 Weather Reports


time (UTC)temp
C
wind
direction
speed
KPH
gust
KPH
rain 1hr
cm
rain 24hr
cm
rain mn
cm
humidity
%
barometer
mb
20260903121549 25 0 0.0 0.0 0.00 0.00 0.00 84 1019.6
20260903120058 23 0 0.0 0.0 0.00 0.00 0.00 87 1019.6
20260903114554 23 0 0.0 0.0 0.00 0.00 0.00 89 1019.4
20260903113051 22 0 0.0 0.0 0.00 0.00 0.00 90 1019.2
20260903111551 22 0 0.0 0.0 0.00 0.00 0.00 90 1019.0
20260903110058 22 0 0.0 0.0 0.00 0.00 0.00 90 1019.0
20260903104556 22 0 0.0 0.0 0.00 0.00 0.00 91 1018.9
20260903103053 22 0 0.0 0.0 0.00 0.00 0.00 91 1018.9
20260903101553 22 0 0.0 0.0 0.00 0.00 0.00 91 1018.9
20260903100100 22 0 0.0 0.0 0.00 0.00 0.00 91 1018.8
20260903094609 22 0 0.0 0.0 0.00 0.00 0.00 91 1018.8
20260903093101 23 0 0.0 0.0 0.00 0.00 0.00 91 1018.7
20260903091555 23 0 0.0 0.0 0.00 0.00 0.00 90 1018.6
20260903084553 23 0 0.0 0.0 0.00 0.00 0.00 89 1018.5
20260903083058 23 0 0.0 0.0 0.00 0.00 0.00 89 1018.5
20260903081608 23 0 0.0 0.0 0.00 0.00 0.00 89 1018.4
20260903080054 23 0 0.0 0.0 0.00 0.00 0.00 89 1018.3
20260903074605 23 0 0.0 0.0 0.00 0.00 0.00 87 1018.3
20260903073135 23 0 0.0 0.0 0.00 0.00 0.00 88 1018.1
20260903071618 23 0 0.0 0.0 0.00 0.00 0.00 88 1018.1
20260903070056 23 0 0.0 0.0 0.00 0.00 0.00 87 1018.2
20260903064552 23 0 0.0 0.0 0.00 0.00 0.00 87 1018.3
20260903063102 24 0 0.0 0.0 0.00 0.00 0.00 87 1018.2
20260903061558 24 0 0.0 0.0 0.00 0.00 0.00 87 1018.3
20260903060131 24 0 0.0 0.0 0.00 0.00 0.00 85 1018.3
20260903054553 24 0 0.0 0.0 0.00 0.00 0.00 84 1018.4
20260903053052 24 0 0.0 0.0 0.00 0.00 0.00 83 1018.3
20260903051601 25 0 0.0 0.0 0.00 0.00 0.00 83 1018.4
20260903050053 25 0 0.0 0.0 0.00 0.00 0.00 84 1018.4
20260903044601 25 0 0.0 0.0 0.00 0.00 0.00 83 1018.3
20260903043053 25 0 0.0 0.0 0.00 0.00 0.00 81 1018.2
20260903041553 25 0 0.0 0.0 0.00 0.00 0.00 80 1018.3
20260903040108 25 0 0.0 0.0 0.00 0.00 0.00 80 1018.3
20260903034557 25 0 0.0 0.0 0.00 0.00 0.00 80 1018.4
20260903033054 26 0 0.0 0.0 0.00 0.00 0.00 81 1018.6
20260903031552 26 0 0.0 0.0 0.00 0.00 0.00 79 1018.6
20260903030103 26 0 0.0 0.0 0.00 0.00 0.00 79 1018.8
20260903024600 26 0 0.0 0.0 0.00 0.00 0.00 78 1018.8
20260903023102 26 0 0.0 0.0 0.00 0.00 0.00 77 1018.8
20260903021600 27 0 0.0 0.0 0.00 0.00 0.00 77 1019.2
20260903020048 27 0 0.0 0.0 0.00 0.00 0.00 76 1019.1
20260903014601 27 0 0.0 0.0 0.00 0.00 0.00 75 1019.1
20260903013055 28 0 0.0 0.0 0.00 0.00 0.00 74 1019.1
20260903011552 28 0 0.0 0.0 0.00 0.00 0.00 73 1019.0
20260903010052 28 0 0.0 0.0 0.00 0.00 0.00 71 1018.8
20260903004600 29 0 0.0 0.0 0.00 0.00 0.00 66 1018.7
20260903003055 30 0 0.0 0.0 0.00 0.00 0.00 63 1018.5
20260903001554 30 0 0.0 0.0 0.00 0.00 0.00 61 1018.3
20260903000053 31 0 0.0 0.0 0.00 0.00 0.00 59 1018.3
20260902234622 31 0 0.0 1.6 0.00 0.00 0.00 59 1018.2
20260902233056 31 0 0.0 0.0 0.00 0.00 0.00 57 1018.3
20260902231606 32 0 0.0 1.6 0.00 0.00 0.00 55 1018.1
20260902224602 32 0 0.0 3.2 0.00 0.00 0.00 51 1018.1
20260902223053 33 0 0.0 4.8 0.00 0.00 0.00 51 1017.9
20260902221602 33 0 0.0 6.4 0.00 0.00 0.00 49 1018.0
20260902220107 33 0 0.0 4.8 0.00 0.00 0.00 49 1017.9
20260902214608 33 94 0.0 6.4 0.00 0.00 0.00 49 1018.1
20260902213051 33 0 0.0 1.6 0.00 0.00 0.00 50 1018.2
20260902211556 33 0 0.0 6.4 0.00 0.00 0.00 49 1018.3
20260902210055 34 0 1.6 9.7 0.00 0.00 0.00 47 1018.2
20260902204635 35 0 0.0 3.2 0.00 0.00 0.00 45 1018.3
20260902203050 35 0 0.0 4.8 0.00 0.00 0.00 45 1018.3
20260902201558 35 0 0.0 11.3 0.00 0.00 0.00 45 1018.3
20260902200055 35 0 1.6 6.4 0.00 0.00 0.00 45 1018.4
20260902194554 35 117 0.0 4.8 0.00 0.00 0.00 45 1018.7
20260902193101 35 114 0.0 4.8 0.00 0.00 0.00 44 1018.8
20260902191556 36 0 0.0 1.6 0.00 0.00 0.00 44 1019.0
20260902190054 35 0 0.0 6.4 0.00 0.00 0.00 45 1019.2
20260902184554 35 154 0.0 8.0 0.00 0.00 0.00 46 1019.2
20260902183052 34 0 0.0 8.0 0.00 0.00 0.00 47 1019.5
20260902181601 35 0 0.0 1.6 0.00 0.00 0.00 46 1019.5
20260902174558 34 0 0.0 0.0 0.00 0.00 0.00 48 1019.6
20260902173056 34 0 0.0 3.2 0.00 0.00 0.00 48 1019.8
20260902171603 33 0 0.0 6.4 0.00 0.00 0.00 50 1020.0
20260902170050 33 0 0.0 0.0 0.00 0.00 0.00 51 1020.2
20260902164555 33 0 0.0 0.0 0.00 0.00 0.00 52 1020.4
20260902163054 32 0 0.0 6.4 0.00 0.00 0.00 52 1020.4
20260902161559 32 103 0.0 6.4 0.00 0.00 0.00 51 1020.6
20260902160051 32 0 0.0 3.2 0.00 0.00 0.00 53 1020.7
20260902154555 32 158 0.0 4.8 0.00 0.00 0.00 53 1020.6
20260902153052 32 0 0.0 0.0 0.00 0.00 0.00 55 1020.7
20260902151555 32 0 0.0 3.2 0.00 0.00 0.00 56 1020.6
20260902150051 32 0 0.0 3.2 0.00 0.00 0.00 55 1020.7
20260902144549 31 0 0.0 0.0 0.00 0.00 0.00 60 1020.6
20260902143058 31 0 0.0 0.0 0.00 0.00 0.00 61 1020.6
20260902141552 30 0 0.0 0.0 0.00 0.00 0.00 63 1020.4
20260902140053 30 0 0.0 0.0 0.00 0.00 0.00 66 1020.4
20260902134551 29 0 0.0 0.0 0.00 0.00 0.00 65 1020.5
20260902133049 28 0 0.0 0.0 0.00 0.00 0.00 67 1020.4
20260902131555 27 0 0.0 0.0 0.00 0.00 0.00 71 1020.5
20260902130054 27 0 0.0 0.0 0.00 0.00 0.00 76 1020.5
20260902124553 26 0 0.0 0.0 0.00 0.00 0.00 79 1020.6
20260902123047 25 0 0.0 0.0 0.00 0.00 0.00 83 1020.5